EW8968 Weather Reports


time (UTC)temp
C
wind
direction
speed
KPH
gust
KPH
rain 1hr
cm
rain 24hr
cm
rain mn
cm
humidity
%
barometer
mb
20260906094523 20 151 0.0 0.0 0.00 1.57 0.00 97 1011.9
20260906093022 20 151 0.0 0.0 0.00 1.57 0.00 97 1011.9
20260906091529 20 151 0.0 0.0 0.00 1.57 0.00 96 1011.7
20260906090016 20 151 0.0 0.0 0.00 1.57 0.00 96 1011.5
20260906084515 20 117 0.0 0.0 0.00 1.57 0.00 96 1011.5
20260906083015 20 117 0.0 0.0 0.00 1.57 0.00 96 1011.6
20260906081513 20 255 0.0 0.0 0.00 1.57 0.00 96 1011.5
20260906080009 20 255 0.0 0.0 0.00 1.57 1.57 96 1011.7
20260906074517 20 136 0.0 0.0 0.00 1.57 1.57 96 1011.6
20260906073007 20 136 0.0 0.0 0.00 1.57 1.57 96 1011.6
20260906071507 20 122 0.0 0.0 0.00 1.57 1.57 96 1011.8
20260906070004 20 122 0.0 0.0 0.00 1.57 1.57 96 1011.9
20260906064506 21 122 0.0 0.0 0.00 1.57 1.57 96 1011.8
20260906063005 21 133 0.0 0.0 0.00 1.57 1.57 96 1012.0
20260906061502 21 133 0.0 0.0 0.00 1.57 1.57 95 1012.2
20260906060003 21 133 0.0 0.0 0.00 1.57 1.57 95 1012.2
20260906054601 21 133 0.0 0.0 0.00 1.57 1.57 95 1012.5
20260906053101 21 133 0.0 0.0 0.00 1.57 1.57 95 1012.5
20260906051604 21 83 0.0 0.0 0.00 1.57 1.57 95 1012.5
20260906050056 21 129 0.0 0.0 0.00 1.57 1.57 95 1012.9
20260906044556 21 129 0.0 0.0 0.00 1.57 1.57 94 1012.6
20260906043055 21 129 0.0 0.0 0.00 1.57 1.57 94 1012.4
20260906041555 21 129 0.0 0.0 0.00 1.57 1.57 94 1012.4
20260906040028 21 97 0.0 0.0 0.00 1.57 1.57 93 1012.5
20260906034527 21 137 0.0 0.0 0.00 1.57 1.57 94 1012.5
20260906033036 21 90 0.0 0.0 0.00 1.57 1.57 94 1012.6
20260906031523 21 132 0.0 0.0 0.00 1.57 1.57 94 1012.8
20260906030019 21 67 0.0 0.0 0.00 1.57 1.57 94 1013.0
20260906024519 22 105 0.0 0.0 0.00 1.57 1.57 93 1012.7
20260906023015 22 104 0.0 0.0 0.00 1.57 1.57 93 1012.8
20260906021516 22 104 0.0 0.0 0.00 1.57 1.57 93 1012.7
20260906020015 22 105 0.0 0.0 0.00 1.57 1.57 92 1012.9
20260906014515 22 105 0.0 0.0 0.00 1.57 1.57 93 1012.5
20260906013045 22 63 0.0 0.0 0.00 1.57 1.57 92 1012.3
20260906011544 22 59 0.0 0.0 0.00 1.57 1.57 92 1012.4
20260906010041 23 101 0.0 0.0 0.00 1.57 1.57 91 1012.2
20260906004540 23 61 0.0 0.0 0.00 1.57 1.57 90 1011.9
20260906003040 23 61 0.0 0.0 0.00 1.57 1.57 90 1011.7
20260906001538 23 94 0.0 0.0 0.00 1.57 1.57 89 1011.7
20260906000037 24 187 0.0 0.0 0.00 1.57 1.57 87 1011.6
20260905234537 25 187 0.0 0.0 0.00 1.57 1.57 85 1011.6
20260905233042 26 187 0.0 0.0 0.00 1.57 1.57 81 1011.5
20260905231534 27 187 0.0 0.0 0.00 1.57 1.57 73 1011.4
20260905230004 28 187 0.0 0.0 0.00 1.57 1.57 70 1011.7
20260905224504 28 226 0.0 0.0 0.00 1.57 1.57 71 1011.8
20260905223059 28 211 0.0 0.0 0.00 1.57 1.57 69 1011.8
20260905221604 28 169 0.0 0.0 0.00 1.57 1.57 67 1011.9
20260905220106 28 146 0.0 0.0 0.00 1.57 1.57 69 1012.0
20260905214555 28 129 0.0 0.0 0.00 1.57 1.57 70 1011.9
20260905213025 28 154 0.0 0.0 0.00 1.57 1.57 72 1011.9
20260905211524 28 176 0.0 4.8 0.00 1.57 1.57 70 1011.8
20260905210022 28 158 0.0 0.0 0.00 1.57 1.57 68 1011.8
20260905204522 28 153 0.0 4.8 0.00 1.57 1.57 69 1011.8
20260905203022 28 191 0.0 0.0 0.00 1.57 1.57 68 1011.8
20260905201521 27 72 0.0 0.0 0.00 1.57 1.57 71 1011.9
20260905200057 27 205 0.0 0.0 0.00 1.57 1.57 73 1011.8
20260905194548 27 239 0.0 0.0 0.00 1.57 1.57 73 1012.2
20260905193042 27 181 0.0 0.0 0.00 1.57 1.57 75 1012.5
20260905191541 26 60 0.0 0.0 0.00 1.57 1.57 75 1012.8
20260905190039 26 43 0.0 0.0 0.00 1.57 1.57 75 1012.9
20260905184540 26 295 0.0 0.0 0.00 1.57 1.57 81 1013.2
20260905183037 25 162 0.0 0.0 0.00 1.57 1.57 83 1013.5
20260905181552 24 138 0.0 0.0 0.00 1.57 1.57 87 1013.9
20260905180036 23 121 0.0 0.0 0.00 1.57 1.57 91 1014.2
20260905174547 22 117 0.0 0.0 0.00 1.57 1.57 94 1014.7
20260905173005 21 51 0.0 0.0 0.00 1.57 1.57 96 1015.3
20260905171504 21 41 0.0 0.0 0.03 1.57 1.57 96 1015.3
20260905170002 21 75 0.0 0.0 1.04 1.57 1.57 96 1015.2
20260905164501 21 13 0.0 0.0 1.57 1.57 1.57 95 1014.6
20260905163100 21 61 0.0 0.0 1.57 1.57 1.57 94 1015.3
20260905161600 21 92 0.0 1.6 1.55 1.55 1.55 93 1015.4
20260905160048 23 281 0.0 38.6 0.53 0.53 0.53 84 1016.4
20260905154524 28 252 0.0 0.0 0.00 0.00 0.00 72 1014.4
20260905153122 28 251 0.0 0.0 0.00 0.00 0.00 70 1014.6
20260905151557 29 257 0.0 0.0 0.00 0.00 0.00 70 1014.3
20260905150049 28 243 0.0 0.0 0.00 0.00 0.00 71 1014.1
20260905144546 28 143 0.0 0.0 0.00 0.00 0.00 73 1014.0
20260905143044 28 190 0.0 0.0 0.00 0.00 0.00 75 1013.9
20260905141542 27 326 0.0 0.0 0.00 0.00 0.00 79 1014.1
20260905140038 26 258 0.0 0.0 0.00 0.00 0.00 82 1014.3
20260905134503 25 290 0.0 0.0 0.00 0.00 0.00 85 1014.3
20260905133001 25 289 0.0 0.0 0.00 0.00 0.00 87 1014.3
20260905131604 25 286 0.0 0.0 0.00 0.00 0.00 86 1014.4
20260905130058 23 286 0.0 0.0 0.00 0.00 0.00 91 1014.7
20260905124557 23 285 0.0 0.0 0.00 0.00 0.00 87 1014.7
20260905123053 23 139 0.0 0.0 0.00 0.00 0.00 89 1014.6
20260905121518 22 139 0.0 0.0 0.00 0.00 0.00 94 1014.5
20260905120014 21 139 0.0 0.0 0.00 0.00 0.00 96 1014.3
20260905114509 20 139 0.0 0.0 0.00 0.00 0.00 96 1014.2
20260905113009 20 139 0.0 0.0 0.00 0.00 0.00 96 1014.2
20260905111508 20 139 0.0 0.0 0.00 0.00 0.00 96 1014.0
20260905110007 20 139 0.0 0.0 0.00 0.00 0.00 96 1013.8
20260905104535 20 139 0.0 0.0 0.00 0.00 0.00 96 1013.4
20260905103041 20 139 0.0 0.0 0.00 0.00 0.00 96 1013.6
20260905101529 20 139 0.0 0.0 0.00 0.00 0.00 96 1013.5
20260905100029 20 139 0.0 0.0 0.00 0.00 0.00 96 1013.5